| time (UTC) | temp C | wind direction | speed KPH | gust KPH | rain 1hr cm | rain 24hr cm | rain mn cm | humidity % | barometer mb |
| 20260509135056 | 10 | 0 | 0.0 | 1.6 | 0.00 | 0.13 | 0.00 | 78 | 1008.5 |
| 20260509134555 | 10 | 0 | 0.0 | 3.2 | 0.00 | 0.13 | 0.00 | 78 | 1008.6 |
| 20260509134100 | 10 | 0 | 0.0 | 3.2 | 0.00 | 0.13 | 0.00 | 79 | 1008.5 |
| 20260509133555 | 10 | 0 | 0.0 | 4.8 | 0.00 | 0.13 | 0.00 | 79 | 1008.6 |
| 20260509133105 | 9 | 0 | 1.6 | 4.8 | 0.00 | 0.13 | 0.00 | 80 | 1008.6 |
| 20260509132553 | 9 | 0 | 0.0 | 4.8 | 0.00 | 0.13 | 0.00 | 80 | 1008.6 |
| 20260509132055 | 8 | 72 | 0.0 | 6.4 | 0.00 | 0.13 | 0.00 | 81 | 1008.7 |
| 20260509131556 | 8 | 117 | 1.6 | 6.4 | 0.00 | 0.13 | 0.00 | 81 | 1008.7 |
| 20260509131054 | 8 | 0 | 0.0 | 4.8 | 0.00 | 0.13 | 0.00 | 81 | 1008.9 |
| 20260509130556 | 8 | 121 | 0.0 | 3.2 | 0.00 | 0.13 | 0.00 | 82 | 1008.9 |
| 20260509130058 | 8 | 0 | 1.6 | 3.2 | 0.00 | 0.13 | 0.00 | 82 | 1009.0 |
| 20260509125555 | 7 | 0 | 0.0 | 3.2 | 0.00 | 0.13 | 0.00 | 83 | 1009.0 |
| 20260509125055 | 7 | 143 | 0.0 | 0.0 | 0.00 | 0.13 | 0.00 | 84 | 1008.9 |
| 20260509124644 | 7 | 0 | 0.0 | 0.0 | 0.00 | 0.13 | 0.00 | 85 | 1008.9 |
| 20260509124059 | 7 | 0 | 0.0 | 0.0 | 0.00 | 0.13 | 0.00 | 85 | 1009.0 |
| 20260509123559 | 7 | 0 | 0.0 | 0.0 | 0.00 | 0.13 | 0.00 | 86 | 1009.0 |
| 20260509123103 | 6 | 0 | 0.0 | 0.0 | 0.00 | 0.13 | 0.00 | 87 | 1008.9 |
| 20260509122555 | 6 | 0 | 0.0 | 0.0 | 0.00 | 0.13 | 0.00 | 87 | 1009.0 |
| 20260509122053 | 6 | 0 | 0.0 | 0.0 | 0.00 | 0.13 | 0.00 | 88 | 1009.1 |
| 20260509121602 | 6 | 0 | 0.0 | 0.0 | 0.00 | 0.13 | 0.00 | 89 | 1009.0 |
| 20260509121056 | 6 | 0 | 0.0 | 0.0 | 0.00 | 0.13 | 0.00 | 89 | 1009.1 |
| 20260509120559 | 6 | 0 | 0.0 | 0.0 | 0.00 | 0.13 | 0.00 | 90 | 1009.1 |
| 20260509115558 | 5 | 0 | 0.0 | 0.0 | 0.00 | 0.13 | 0.00 | 90 | 1009.1 |
| 20260509115055 | 5 | 0 | 0.0 | 0.0 | 0.00 | 0.13 | 0.00 | 91 | 1009.0 |
| 20260509114603 | 5 | 0 | 0.0 | 0.0 | 0.00 | 0.13 | 0.00 | 91 | 1009.1 |
| 20260509114054 | 5 | 0 | 0.0 | 0.0 | 0.00 | 0.13 | 0.00 | 91 | 1009.2 |
| 20260509113601 | 5 | 0 | 0.0 | 0.0 | 0.00 | 0.13 | 0.00 | 92 | 1009.2 |
| 20260509113059 | 5 | 0 | 0.0 | 0.0 | 0.00 | 0.13 | 0.00 | 92 | 1009.1 |
| 20260509112553 | 5 | 0 | 0.0 | 0.0 | 0.00 | 0.13 | 0.00 | 92 | 1009.1 |
| 20260509112055 | 4 | 0 | 0.0 | 0.0 | 0.00 | 0.13 | 0.00 | 92 | 1008.9 |
| 20260509111555 | 4 | 0 | 0.0 | 0.0 | 0.00 | 0.13 | 0.00 | 93 | 1008.9 |
| 20260509111059 | 4 | 0 | 0.0 | 0.0 | 0.00 | 0.13 | 0.00 | 93 | 1009.0 |
| 20260509110557 | 3 | 0 | 0.0 | 0.0 | 0.00 | 0.13 | 0.00 | 93 | 1009.0 |
| 20260509110057 | 3 | 0 | 0.0 | 0.0 | 0.00 | 0.13 | 0.00 | 93 | 1009.1 |
| 20260509105558 | 3 | 0 | 0.0 | 0.0 | 0.00 | 0.13 | 0.00 | 93 | 1009.2 |
| 20260509105055 | 3 | 0 | 0.0 | 0.0 | 0.00 | 0.13 | 0.00 | 93 | 1009.2 |
| 20260509104556 | 3 | 0 | 0.0 | 0.0 | 0.00 | 0.13 | 0.00 | 93 | 1009.2 |
| 20260509104056 | 3 | 0 | 0.0 | 0.0 | 0.00 | 0.13 | 0.00 | 93 | 1009.1 |
| 20260509103555 | 3 | 0 | 0.0 | 0.0 | 0.00 | 0.13 | 0.00 | 93 | 1009.1 |
| 20260509103054 | 2 | 0 | 0.0 | 0.0 | 0.00 | 0.13 | 0.00 | 92 | 1009.3 |
| 20260509102556 | 2 | 0 | 0.0 | 0.0 | 0.00 | 0.13 | 0.00 | 92 | 1009.2 |
| 20260509102057 | 2 | 0 | 0.0 | 0.0 | 0.00 | 0.13 | 0.00 | 92 | 1009.3 |
| 20260509101558 | 2 | 0 | 0.0 | 0.0 | 0.00 | 0.13 | 0.00 | 92 | 1009.3 |
| 20260509101053 | 2 | 0 | 0.0 | 0.0 | 0.00 | 0.13 | 0.00 | 92 | 1009.3 |
| 20260509100557 | 2 | 0 | 0.0 | 0.0 | 0.00 | 0.13 | 0.00 | 92 | 1009.1 |
| 20260509100057 | 2 | 0 | 0.0 | 0.0 | 0.00 | 0.13 | 0.00 | 92 | 1009.1 |
| 20260509095556 | 2 | 0 | 0.0 | 0.0 | 0.00 | 0.13 | 0.00 | 92 | 1009.1 |
| 20260509095056 | 2 | 0 | 0.0 | 0.0 | 0.00 | 0.13 | 0.00 | 92 | 1009.1 |
| 20260509094556 | 2 | 0 | 0.0 | 0.0 | 0.00 | 0.13 | 0.00 | 92 | 1009.0 |
| 20260509094056 | 2 | 0 | 0.0 | 0.0 | 0.00 | 0.13 | 0.00 | 92 | 1008.9 |
| 20260509093555 | 2 | 0 | 0.0 | 0.0 | 0.00 | 0.13 | 0.00 | 92 | 1008.9 |
| 20260509093056 | 2 | 0 | 0.0 | 0.0 | 0.00 | 0.13 | 0.00 | 92 | 1009.0 |
| 20260509092555 | 2 | 0 | 0.0 | 0.0 | 0.00 | 0.13 | 0.00 | 92 | 1008.9 |
| 20260509092058 | 2 | 0 | 0.0 | 0.0 | 0.00 | 0.13 | 0.00 | 92 | 1009.0 |
| 20260509091600 | 1 | 0 | 0.0 | 0.0 | 0.00 | 0.13 | 0.00 | 92 | 1009.0 |
| 20260509091056 | 1 | 0 | 0.0 | 0.0 | 0.00 | 0.13 | 0.00 | 92 | 1009.1 |
| 20260509090556 | 1 | 0 | 0.0 | 0.0 | 0.00 | 0.13 | 0.00 | 92 | 1009.1 |
| 20260509090106 | 1 | 0 | 0.0 | 0.0 | 0.00 | 0.13 | 0.00 | 92 | 1009.2 |
| 20260509085556 | 1 | 0 | 0.0 | 0.0 | 0.00 | 0.13 | 0.00 | 92 | 1009.2 |
| 20260509085059 | 1 | 0 | 0.0 | 0.0 | 0.00 | 0.13 | 0.00 | 92 | 1009.3 |
| 20260509084553 | 1 | 0 | 0.0 | 0.0 | 0.00 | 0.13 | 0.00 | 92 | 1009.5 |
| 20260509084055 | 1 | 0 | 0.0 | 0.0 | 0.00 | 0.13 | 0.00 | 91 | 1009.5 |
| 20260509083555 | 1 | 0 | 0.0 | 0.0 | 0.00 | 0.13 | 0.00 | 91 | 1009.6 |
| 20260509083058 | 1 | 0 | 0.0 | 0.0 | 0.00 | 0.13 | 0.00 | 91 | 1009.6 |
| 20260509082553 | 1 | 0 | 0.0 | 0.0 | 0.00 | 0.13 | 0.00 | 91 | 1009.7 |
| 20260509082053 | 1 | 0 | 0.0 | 0.0 | 0.00 | 0.13 | 0.00 | 91 | 1009.7 |
| 20260509081556 | 1 | 0 | 0.0 | 0.0 | 0.00 | 0.13 | 0.00 | 92 | 1009.7 |
| 20260509081056 | 1 | 0 | 0.0 | 0.0 | 0.00 | 0.13 | 0.00 | 92 | 1009.7 |
| 20260509080555 | 1 | 0 | 0.0 | 0.0 | 0.00 | 0.13 | 0.00 | 91 | 1009.7 |
| 20260509080110 | 1 | 0 | 0.0 | 0.0 | 0.00 | 0.13 | 0.00 | 91 | 1009.9 |
| 20260509075556 | 1 | 0 | 0.0 | 0.0 | 0.00 | 0.13 | 0.00 | 91 | 1009.8 |
| 20260509075057 | 1 | 0 | 0.0 | 0.0 | 0.00 | 0.13 | 0.00 | 91 | 1009.8 |
| 20260509074558 | 1 | 0 | 0.0 | 0.0 | 0.00 | 0.13 | 0.00 | 91 | 1009.8 |
| 20260509074056 | 1 | 0 | 0.0 | 0.0 | 0.00 | 0.13 | 0.00 | 91 | 1009.9 |
| 20260509073556 | 1 | 0 | 0.0 | 0.0 | 0.00 | 0.13 | 0.00 | 91 | 1009.9 |
| 20260509073107 | 1 | 0 | 0.0 | 0.0 | 0.00 | 0.13 | 0.00 | 91 | 1009.9 |
| 20260509072556 | 1 | 0 | 0.0 | 0.0 | 0.00 | 0.13 | 0.00 | 91 | 1009.9 |
| 20260509072056 | 1 | 0 | 0.0 | 0.0 | 0.00 | 0.13 | 0.00 | 91 | 1009.8 |
| 20260509071556 | 1 | 0 | 0.0 | 0.0 | 0.00 | 0.13 | 0.00 | 91 | 1009.9 |
| 20260509071054 | 1 | 0 | 0.0 | 0.0 | 0.00 | 0.13 | 0.00 | 91 | 1009.8 |
| 20260509070556 | 1 | 0 | 0.0 | 0.0 | 0.00 | 0.13 | 0.00 | 91 | 1009.9 |
| 20260509070059 | 1 | 0 | 0.0 | 0.0 | 0.00 | 0.13 | 0.00 | 91 | 1009.8 |
| 20260509065554 | 1 | 0 | 0.0 | 0.0 | 0.00 | 0.13 | 0.00 | 90 | 1009.8 |
| 20260509065055 | 1 | 0 | 0.0 | 0.0 | 0.00 | 0.13 | 0.00 | 90 | 1009.9 |
| 20260509064555 | 1 | 0 | 0.0 | 0.0 | 0.00 | 0.13 | 0.00 | 90 | 1009.9 |
| 20260509064053 | 1 | 0 | 0.0 | 0.0 | 0.00 | 0.13 | 0.00 | 90 | 1009.9 |
| 20260509063554 | 1 | 0 | 0.0 | 0.0 | 0.00 | 0.13 | 0.00 | 90 | 1009.9 |
| 20260509063114 | 1 | 0 | 0.0 | 0.0 | 0.00 | 0.13 | 0.00 | 90 | 1010.0 |
| 20260509062555 | 1 | 0 | 0.0 | 0.0 | 0.00 | 0.13 | 0.00 | 90 | 1010.1 |
| 20260509062054 | 1 | 0 | 0.0 | 0.0 | 0.00 | 0.13 | 0.00 | 90 | 1010.0 |
| 20260509061559 | 1 | 0 | 0.0 | 0.0 | 0.00 | 0.13 | 0.00 | 90 | 1010.2 |
| 20260509061056 | 1 | 0 | 0.0 | 0.0 | 0.00 | 0.13 | 0.00 | 90 | 1010.1 |
| 20260509060554 | 2 | 0 | 0.0 | 0.0 | 0.00 | 0.13 | 0.00 | 90 | 1010.2 |
| 20260509060057 | 2 | 0 | 0.0 | 0.0 | 0.00 | 0.13 | 0.00 | 90 | 1010.3 |
| 20260509055554 | 2 | 0 | 0.0 | 0.0 | 0.00 | 0.15 | 0.00 | 90 | 1010.4 |
| 20260509055053 | 1 | 0 | 0.0 | 0.0 | 0.00 | 0.15 | 0.00 | 90 | 1010.6 |
| 20260509054556 | 1 | 0 | 0.0 | 0.0 | 0.00 | 0.15 | 0.00 | 90 | 1010.5 |
| 20260509054053 | 1 | 0 | 0.0 | 0.0 | 0.00 | 0.15 | 0.00 | 89 | 1010.6 |
| 20260509053555 | 1 | 0 | 0.0 | 0.0 | 0.00 | 0.15 | 0.00 | 89 | 1010.6 |
| 20260509053055 | 1 | 0 | 0.0 | 0.0 | 0.00 | 0.15 | 0.00 | 89 | 1010.8 |
| 20260509052557 | 2 | 0 | 0.0 | 0.0 | 0.00 | 0.15 | 0.00 | 89 | 1010.7 |
| 20260509052054 | 2 | 0 | 0.0 | 0.0 | 0.00 | 0.15 | 0.00 | 89 | 1010.8 |
| 20260509051602 | 2 | 0 | 0.0 | 0.0 | 0.00 | 0.15 | 0.00 | 89 | 1010.8 |
| 20260509051056 | 2 | 0 | 0.0 | 0.0 | 0.00 | 0.15 | 0.00 | 89 | 1010.8 |
| 20260509050554 | 2 | 0 | 0.0 | 0.0 | 0.00 | 0.15 | 0.00 | 89 | 1010.7 |
| 20260509050101 | 2 | 0 | 0.0 | 0.0 | 0.00 | 0.15 | 0.00 | 89 | 1010.8 |
| 20260509045555 | 2 | 0 | 0.0 | 0.0 | 0.00 | 0.15 | 0.00 | 89 | 1010.9 |
| 20260509045054 | 2 | 0 | 0.0 | 0.0 | 0.00 | 0.15 | 0.00 | 88 | 1010.9 |
| 20260509044604 | 2 | 0 | 0.0 | 0.0 | 0.00 | 0.15 | 0.00 | 88 | 1011.0 |
| 20260509044055 | 2 | 0 | 0.0 | 0.0 | 0.00 | 0.15 | 0.00 | 88 | 1011.0 |
| 20260509043557 | 2 | 0 | 0.0 | 0.0 | 0.00 | 0.15 | 0.00 | 88 | 1011.1 |
| 20260509043103 | 2 | 0 | 0.0 | 0.0 | 0.00 | 0.15 | 0.00 | 88 | 1011.1 |
| 20260509042556 | 2 | 0 | 0.0 | 0.0 | 0.00 | 0.15 | 0.00 | 88 | 1011.1 |
| 20260509042056 | 2 | 0 | 0.0 | 0.0 | 0.00 | 0.15 | 0.00 | 88 | 1011.2 |
| 20260509041556 | 2 | 0 | 0.0 | 0.0 | 0.00 | 0.15 | 0.00 | 88 | 1011.2 |
| 20260509041057 | 2 | 0 | 0.0 | 0.0 | 0.00 | 0.15 | 0.00 | 87 | 1011.2 |
| 20260509040558 | 2 | 0 | 0.0 | 0.0 | 0.00 | 0.15 | 0.00 | 87 | 1011.2 |
| 20260509040056 | 2 | 0 | 0.0 | 0.0 | 0.00 | 0.15 | 0.00 | 87 | 1011.3 |
| 20260509035555 | 2 | 0 | 0.0 | 0.0 | 0.00 | 0.15 | 0.15 | 87 | 1011.2 |
| 20260509035057 | 2 | 0 | 0.0 | 0.0 | 0.00 | 0.15 | 0.15 | 87 | 1011.2 |
| 20260509034605 | 2 | 0 | 0.0 | 0.0 | 0.00 | 0.15 | 0.15 | 86 | 1011.3 |
| 20260509034056 | 2 | 0 | 0.0 | 0.0 | 0.00 | 0.15 | 0.15 | 86 | 1011.2 |
| 20260509033556 | 2 | 0 | 0.0 | 0.0 | 0.00 | 0.15 | 0.15 | 86 | 1011.2 |
| 20260509033107 | 3 | 0 | 0.0 | 0.0 | 0.00 | 0.15 | 0.15 | 86 | 1011.2 |
| 20260509032556 | 3 | 0 | 0.0 | 0.0 | 0.00 | 0.15 | 0.15 | 86 | 1011.2 |
| 20260509032059 | 3 | 0 | 0.0 | 0.0 | 0.00 | 0.15 | 0.15 | 86 | 1011.2 |
| 20260509031555 | 3 | 0 | 0.0 | 0.0 | 0.00 | 0.15 | 0.15 | 86 | 1011.2 |
| 20260509031053 | 3 | 0 | 0.0 | 0.0 | 0.00 | 0.15 | 0.15 | 85 | 1011.2 |
| 20260509030554 | 3 | 0 | 0.0 | 0.0 | 0.00 | 0.15 | 0.15 | 85 | 1011.2 |
| 20260509030058 | 3 | 0 | 0.0 | 0.0 | 0.00 | 0.15 | 0.15 | 85 | 1011.2 |
| 20260509025556 | 3 | 0 | 0.0 | 0.0 | 0.00 | 0.15 | 0.15 | 85 | 1011.3 |
| 20260509025055 | 3 | 0 | 0.0 | 0.0 | 0.00 | 0.15 | 0.15 | 84 | 1011.3 |
| 20260509024603 | 3 | 0 | 0.0 | 0.0 | 0.00 | 0.15 | 0.15 | 83 | 1011.3 |
| 20260509024053 | 3 | 0 | 0.0 | 0.0 | 0.00 | 0.15 | 0.15 | 83 | 1011.3 |
| 20260509023555 | 3 | 0 | 0.0 | 0.0 | 0.00 | 0.15 | 0.15 | 83 | 1011.3 |
| 20260509023056 | 3 | 0 | 0.0 | 0.0 | 0.00 | 0.15 | 0.15 | 83 | 1011.4 |
| 20260509022555 | 3 | 0 | 0.0 | 0.0 | 0.00 | 0.15 | 0.15 | 82 | 1011.4 |
| 20260509022055 | 3 | 0 | 0.0 | 0.0 | 0.00 | 0.15 | 0.15 | 82 | 1011.4 |
| 20260509021555 | 4 | 0 | 0.0 | 0.0 | 0.00 | 0.15 | 0.15 | 82 | 1011.5 |
| 20260509021055 | 4 | 0 | 0.0 | 0.0 | 0.00 | 0.15 | 0.15 | 82 | 1011.5 |
| 20260509020556 | 4 | 0 | 0.0 | 0.0 | 0.00 | 0.15 | 0.15 | 81 | 1011.5 |
| 20260509020055 | 5 | 0 | 0.0 | 0.0 | 0.00 | 0.15 | 0.15 | 81 | 1011.5 |
| 20260509015555 | 5 | 0 | 0.0 | 0.0 | 0.00 | 0.15 | 0.15 | 80 | 1011.5 |
| 20260509015056 | 5 | 0 | 0.0 | 0.0 | 0.00 | 0.15 | 0.15 | 80 | 1011.4 |
| 20260509014554 | 5 | 0 | 0.0 | 0.0 | 0.00 | 0.15 | 0.15 | 80 | 1011.4 |
| 20260509014054 | 5 | 0 | 0.0 | 0.0 | 0.00 | 0.15 | 0.15 | 79 | 1011.4 |
| 20260509013554 | 5 | 0 | 0.0 | 0.0 | 0.00 | 0.15 | 0.15 | 78 | 1011.3 |
| 20260509013103 | 5 | 0 | 0.0 | 0.0 | 0.00 | 0.15 | 0.15 | 78 | 1011.2 |
| 20260509012553 | 5 | 0 | 0.0 | 0.0 | 0.00 | 0.15 | 0.15 | 77 | 1011.2 |
| 20260509012054 | 6 | 0 | 0.0 | 0.0 | 0.00 | 0.15 | 0.15 | 76 | 1011.2 |
| 20260509011603 | 6 | 0 | 0.0 | 0.0 | 0.00 | 0.15 | 0.15 | 75 | 1011.1 |
| 20260509011054 | 6 | 0 | 0.0 | 0.0 | 0.00 | 0.15 | 0.15 | 75 | 1011.1 |
| 20260509010555 | 6 | 0 | 0.0 | 0.0 | 0.00 | 0.15 | 0.15 | 74 | 1011.0 |
| 20260509010057 | 6 | 0 | 0.0 | 0.0 | 0.00 | 0.15 | 0.15 | 74 | 1010.8 |
| 20260509005554 | 6 | 0 | 0.0 | 0.0 | 0.00 | 0.15 | 0.15 | 72 | 1010.8 |
| 20260509005058 | 7 | 0 | 0.0 | 0.0 | 0.00 | 0.15 | 0.15 | 70 | 1010.8 |
| 20260509004600 | 7 | 0 | 0.0 | 0.0 | 0.00 | 0.15 | 0.15 | 70 | 1010.7 |
| 20260509004058 | 7 | 0 | 0.0 | 0.0 | 0.00 | 0.15 | 0.15 | 69 | 1010.6 |
| 20260509003554 | 8 | 0 | 0.0 | 0.0 | 0.00 | 0.15 | 0.15 | 67 | 1010.6 |
| 20260509003055 | 8 | 0 | 0.0 | 0.0 | 0.00 | 0.15 | 0.15 | 66 | 1010.5 |
| 20260509002556 | 9 | 0 | 0.0 | 0.0 | 0.00 | 0.15 | 0.15 | 65 | 1010.5 |
| 20260509002056 | 9 | 0 | 0.0 | 0.0 | 0.00 | 0.15 | 0.15 | 64 | 1010.4 |
| 20260509001556 | 10 | 0 | 0.0 | 0.0 | 0.00 | 0.15 | 0.15 | 62 | 1010.5 |
| 20260509001053 | 10 | 0 | 0.0 | 0.0 | 0.00 | 0.15 | 0.15 | 61 | 1010.4 |
| 20260509000556 | 11 | 0 | 0.0 | 0.0 | 0.00 | 0.15 | 0.15 | 60 | 1010.3 |
| 20260509000057 | 11 | 0 | 0.0 | 0.0 | 0.00 | 0.15 | 0.15 | 57 | 1010.3 |
| 20260508235554 | 12 | 0 | 0.0 | 0.0 | 0.00 | 0.15 | 0.15 | 51 | 1010.3 |
| 20260508235054 | 12 | 0 | 0.0 | 0.0 | 0.00 | 0.15 | 0.15 | 48 | 1010.2 |
| 20260508234556 | 13 | 0 | 0.0 | 0.0 | 0.00 | 0.15 | 0.15 | 46 | 1010.1 |
| 20260508234057 | 13 | 0 | 0.0 | 0.0 | 0.00 | 0.15 | 0.15 | 45 | 1010.2 |
| 20260508233554 | 14 | 0 | 0.0 | 0.0 | 0.00 | 0.15 | 0.15 | 44 | 1010.2 |
| 20260508233054 | 15 | 0 | 0.0 | 0.0 | 0.00 | 0.15 | 0.15 | 44 | 1010.2 |
| 20260508232554 | 15 | 0 | 0.0 | 0.0 | 0.00 | 0.15 | 0.15 | 48 | 1010.2 |
| 20260508232053 | 15 | 0 | 0.0 | 0.0 | 0.00 | 0.15 | 0.15 | 47 | 1010.3 |
| 20260508231558 | 14 | 0 | 0.0 | 3.2 | 0.00 | 0.15 | 0.15 | 44 | 1010.2 |
| 20260508231054 | 14 | 0 | 0.0 | 3.2 | 0.00 | 0.15 | 0.15 | 41 | 1010.2 |
| 20260508230555 | 15 | 274 | 0.0 | 0.0 | 0.00 | 0.15 | 0.15 | 40 | 1010.1 |
| 20260508230055 | 14 | 0 | 0.0 | 0.0 | 0.00 | 0.15 | 0.15 | 43 | 1010.2 |
| 20260508225555 | 14 | 0 | 0.0 | 3.2 | 0.00 | 0.15 | 0.15 | 41 | 1010.1 |
| 20260508225055 | 14 | 0 | 0.0 | 3.2 | 0.00 | 0.15 | 0.15 | 42 | 1010.2 |
| 20260508224612 | 14 | 241 | 0.0 | 3.2 | 0.00 | 0.15 | 0.15 | 42 | 1010.2 |
| 20260508224054 | 14 | 0 | 0.0 | 4.8 | 0.00 | 0.15 | 0.15 | 46 | 1010.2 |
| 20260508223554 | 13 | 0 | 0.0 | 4.8 | 0.00 | 0.15 | 0.15 | 44 | 1010.1 |
| 20260508223055 | 13 | 0 | 1.6 | 4.8 | 0.00 | 0.15 | 0.15 | 44 | 1010.3 |
| 20260508222552 | 13 | 244 | 3.2 | 4.8 | 0.00 | 0.15 | 0.15 | 42 | 1010.3 |
| 20260508222057 | 13 | 0 | 0.0 | 4.8 | 0.00 | 0.15 | 0.15 | 43 | 1010.3 |
| 20260508221607 | 13 | 0 | 0.0 | 6.4 | 0.00 | 0.15 | 0.15 | 42 | 1010.4 |
| 20260508221056 | 13 | 0 | 3.2 | 9.7 | 0.00 | 0.15 | 0.15 | 42 | 1010.5 |
| 20260508220558 | 13 | 271 | 3.2 | 9.7 | 0.00 | 0.15 | 0.15 | 45 | 1010.4 |
| 20260508220055 | 13 | 243 | 1.6 | 4.8 | 0.00 | 0.15 | 0.15 | 44 | 1010.5 |
| 20260508215600 | 13 | 0 | 1.6 | 6.4 | 0.00 | 0.15 | 0.15 | 41 | 1010.6 |
| 20260508215053 | 13 | 246 | 0.0 | 9.7 | 0.00 | 0.15 | 0.15 | 43 | 1010.5 |
| 20260508214557 | 13 | 219 | 1.6 | 9.7 | 0.00 | 0.15 | 0.15 | 44 | 1010.6 |
| 20260508214058 | 13 | 240 | 4.8 | 12.9 | 0.00 | 0.15 | 0.15 | 44 | 1010.5 |
| 20260508213558 | 13 | 291 | 3.2 | 12.9 | 0.00 | 0.15 | 0.15 | 45 | 1010.5 |
| 20260508213055 | 13 | 297 | 1.6 | 14.5 | 0.00 | 0.15 | 0.15 | 44 | 1010.5 |
| 20260508212557 | 13 | 0 | 1.6 | 14.5 | 0.00 | 0.15 | 0.15 | 43 | 1010.5 |
| 20260508212056 | 13 | 326 | 3.2 | 14.5 | 0.00 | 0.15 | 0.15 | 43 | 1010.7 |
| 20260508211556 | 13 | 212 | 0.0 | 8.0 | 0.00 | 0.15 | 0.15 | 44 | 1010.6 |
| 20260508211057 | 13 | 0 | 4.8 | 8.0 | 0.00 | 0.15 | 0.15 | 44 | 1010.5 |
| 20260508210555 | 13 | 347 | 1.6 | 11.3 | 0.00 | 0.15 | 0.15 | 45 | 1010.5 |
| 20260508210057 | 13 | 347 | 4.8 | 11.3 | 0.00 | 0.15 | 0.15 | 42 | 1010.6 |
| 20260508205553 | 13 | 297 | 4.8 | 9.7 | 0.00 | 0.15 | 0.15 | 45 | 1010.7 |
| 20260508205054 | 13 | 314 | 0.0 | 9.7 | 0.00 | 0.15 | 0.15 | 43 | 1010.7 |
| 20260508204554 | 13 | 288 | 4.8 | 14.5 | 0.00 | 0.15 | 0.15 | 49 | 1010.7 |
| 20260508204056 | 13 | 228 | 4.8 | 19.3 | 0.00 | 0.15 | 0.15 | 47 | 1010.7 |
| 20260508203556 | 13 | 295 | 9.7 | 19.3 | 0.00 | 0.15 | 0.15 | 49 | 1010.8 |
| 20260508203101 | 13 | 243 | 4.8 | 9.7 | 0.00 | 0.15 | 0.15 | 53 | 1010.7 |
| 20260508202556 | 13 | 299 | 0.0 | 6.4 | 0.00 | 0.15 | 0.15 | 47 | 1010.7 |
| 20260508202056 | 13 | 0 | 1.6 | 6.4 | 0.00 | 0.15 | 0.15 | 48 | 1010.7 |
| 20260508201600 | 13 | 314 | 0.0 | 6.4 | 0.00 | 0.15 | 0.15 | 53 | 1010.8 |
| 20260508201056 | 12 | 0 | 0.0 | 12.9 | 0.00 | 0.15 | 0.15 | 50 | 1010.8 |
| 20260508200559 | 12 | 248 | 6.4 | 12.9 | 0.00 | 0.15 | 0.15 | 52 | 1010.8 |
| 20260508200108 | 12 | 206 | 3.2 | 9.7 | 0.00 | 0.15 | 0.15 | 52 | 1010.9 |
| 20260508195553 | 12 | 283 | 1.6 | 6.4 | 0.00 | 0.15 | 0.15 | 55 | 1011.1 |
| 20260508195055 | 11 | 300 | 3.2 | 12.9 | 0.00 | 0.15 | 0.15 | 55 | 1011.1 |
| 20260508194556 | 12 | 293 | 4.8 | 16.1 | 0.00 | 0.15 | 0.15 | 54 | 1011.2 |
| 20260508194056 | 12 | 275 | 8.0 | 16.1 | 0.00 | 0.15 | 0.15 | 55 | 1011.2 |
| 20260508193555 | 12 | 250 | 9.7 | 16.1 | 0.00 | 0.15 | 0.15 | 53 | 1011.2 |
| 20260508193103 | 12 | 195 | 8.0 | 17.7 | 0.00 | 0.15 | 0.15 | 56 | 1011.2 |
| 20260508192555 | 11 | 246 | 9.7 | 17.7 | 0.00 | 0.15 | 0.15 | 56 | 1011.1 |
| 20260508192053 | 11 | 307 | 3.2 | 14.5 | 0.00 | 0.15 | 0.15 | 60 | 1011.1 |
| 20260508191555 | 11 | 192 | 6.4 | 14.5 | 0.00 | 0.15 | 0.15 | 59 | 1011.2 |
| 20260508191056 | 11 | 144 | 4.8 | 12.9 | 0.00 | 0.15 | 0.15 | 65 | 1011.2 |
| 20260508190556 | 11 | 240 | 3.2 | 9.7 | 0.00 | 0.15 | 0.15 | 61 | 1011.3 |
| 20260508190057 | 11 | 101 | 3.2 | 16.1 | 0.00 | 0.15 | 0.15 | 63 | 1011.3 |
| 20260508185559 | 11 | 138 | 4.8 | 16.1 | 0.00 | 0.15 | 0.15 | 64 | 1011.3 |
| 20260508185054 | 11 | 231 | 3.2 | 12.9 | 0.00 | 0.15 | 0.15 | 62 | 1011.4 |
| 20260508184557 | 11 | 157 | 4.8 | 11.3 | 0.00 | 0.15 | 0.15 | 66 | 1011.4 |
| 20260508184100 | 11 | 223 | 4.8 | 12.9 | 0.00 | 0.15 | 0.15 | 63 | 1011.5 |
| 20260508183555 | 11 | 266 | 6.4 | 12.9 | 0.00 | 0.15 | 0.15 | 64 | 1011.4 |
| 20260508183121 | 11 | 131 | 4.8 | 11.3 | 0.00 | 0.15 | 0.15 | 65 | 1011.5 |
| 20260508182553 | 11 | 0 | 3.2 | 11.3 | 0.00 | 0.15 | 0.15 | 66 | 1011.6 |
| 20260508182057 | 10 | 239 | 3.2 | 12.9 | 0.00 | 0.15 | 0.15 | 66 | 1011.7 |
| 20260508181611 | 10 | 263 | 8.0 | 17.7 | 0.00 | 0.15 | 0.15 | 67 | 1011.7 |
| 20260508181054 | 10 | 239 | 8.0 | 17.7 | 0.05 | 0.15 | 0.15 | 69 | 1011.9 |
| 20260508180556 | 10 | 152 | 6.4 | 12.9 | 0.05 | 0.15 | 0.15 | 72 | 1011.9 |
| 20260508180055 | 10 | 224 | 3.2 | 11.3 | 0.05 | 0.15 | 0.15 | 72 | 1012.0 |
| 20260508175602 | 10 | 275 | 3.2 | 11.3 | 0.05 | 0.15 | 0.15 | 74 | 1011.8 |
| 20260508175059 | 9 | 259 | 3.2 | 9.7 | 0.05 | 0.15 | 0.15 | 72 | 1011.8 |
| 20260508174556 | 8 | 248 | 0.0 | 12.9 | 0.05 | 0.15 | 0.15 | 74 | 1011.9 |
| 20260508174100 | 8 | 226 | 3.2 | 12.9 | 0.05 | 0.15 | 0.15 | 72 | 1012.0 |
| 20260508173603 | 8 | 239 | 6.4 | 12.9 | 0.05 | 0.15 | 0.15 | 72 | 1012.1 |
| 20260508173104 | 8 | 233 | 1.6 | 8.0 | 0.05 | 0.15 | 0.15 | 79 | 1012.1 |
| 20260508172554 | 8 | 224 | 3.2 | 9.7 | 0.05 | 0.15 | 0.15 | 76 | 1012.2 |
| 20260508172054 | 8 | 222 | 1.6 | 11.3 | 0.05 | 0.15 | 0.15 | 78 | 1012.3 |
| 20260508171558 | 7 | 256 | 4.8 | 11.3 | 0.05 | 0.15 | 0.15 | 75 | 1012.4 |
| 20260508171054 | 8 | 229 | 6.4 | 11.3 | 0.00 | 0.10 | 0.10 | 72 | 1012.3 |
| 20260508170557 | 8 | 235 | 3.2 | 11.3 | 0.00 | 0.10 | 0.10 | 72 | 1012.3 |
| 20260508170100 | 8 | 288 | 6.4 | 11.3 | 0.00 | 0.10 | 0.10 | 71 | 1012.3 |
| 20260508165556 | 8 | 214 | 4.8 | 9.7 | 0.00 | 0.10 | 0.10 | 71 | 1012.3 |
| 20260508165056 | 8 | 0 | 3.2 | 9.7 | 0.00 | 0.10 | 0.10 | 69 | 1012.2 |
| 20260508164556 | 8 | 267 | 4.8 | 9.7 | 0.00 | 0.10 | 0.10 | 70 | 1012.3 |
| 20260508164056 | 8 | 102 | 3.2 | 11.3 | 0.00 | 0.10 | 0.10 | 70 | 1012.3 |
| 20260508163557 | 9 | 271 | 4.8 | 11.3 | 0.00 | 0.10 | 0.10 | 69 | 1012.3 |
| 20260508163055 | 9 | 245 | 4.8 | 9.7 | 0.00 | 0.10 | 0.10 | 70 | 1012.3 |
| 20260508162556 | 9 | 224 | 6.4 | 11.3 | 0.00 | 0.10 | 0.10 | 70 | 1012.3 |
| 20260508162055 | 9 | 251 | 3.2 | 11.3 | 0.00 | 0.10 | 0.10 | 73 | 1012.2 |
| 20260508161556 | 9 | 224 | 3.2 | 8.0 | 0.00 | 0.10 | 0.10 | 72 | 1012.2 |
| 20260508161057 | 9 | 231 | 3.2 | 8.0 | 0.00 | 0.10 | 0.10 | 71 | 1012.3 |
| 20260508160601 | 8 | 281 | 1.6 | 8.0 | 0.00 | 0.10 | 0.10 | 72 | 1012.3 |
| 20260508155555 | 8 | 293 | 4.8 | 16.1 | 0.00 | 0.10 | 0.10 | 73 | 1012.3 |
| 20260508155054 | 8 | 311 | 4.8 | 16.1 | 0.00 | 0.10 | 0.10 | 77 | 1012.4 |
| 20260508154601 | 8 | 226 | 4.8 | 11.3 | 0.03 | 0.10 | 0.10 | 76 | 1012.3 |
| 20260508154057 | 8 | 217 | 4.8 | 11.3 | 0.05 | 0.10 | 0.10 | 78 | 1012.3 |
| 20260508153555 | 7 | 231 | 4.8 | 12.9 | 0.05 | 0.10 | 0.10 | 79 | 1012.3 |
| 20260508153057 | 7 | 205 | 4.8 | 12.9 | 0.05 | 0.10 | 0.10 | 81 | 1012.3 |
| 20260508152555 | 7 | 256 | 6.4 | 14.5 | 0.05 | 0.10 | 0.10 | 80 | 1012.3 |
| 20260508152056 | 7 | 249 | 4.8 | 14.5 | 0.05 | 0.10 | 0.10 | 84 | 1012.3 |
| 20260508151558 | 7 | 285 | 6.4 | 14.5 | 0.05 | 0.10 | 0.10 | 84 | 1012.3 |
| 20260508151054 | 6 | 248 | 4.8 | 9.7 | 0.05 | 0.10 | 0.10 | 88 | 1012.4 |
| 20260508150554 | 6 | 276 | 4.8 | 9.7 | 0.05 | 0.10 | 0.10 | 89 | 1012.3 |
| 20260508150122 | 6 | 303 | 4.8 | 9.7 | 0.05 | 0.10 | 0.10 | 90 | 1012.4 |
| 20260508145555 | 5 | 273 | 4.8 | 9.7 | 0.05 | 0.10 | 0.10 | 88 | 1012.5 |
| 20260508145054 | 5 | 283 | 4.8 | 12.9 | 0.05 | 0.10 | 0.10 | 88 | 1012.5 |
| 20260508144604 | 5 | 261 | 8.0 | 12.9 | 0.03 | 0.08 | 0.08 | 87 | 1012.4 |
| 20260508144054 | 6 | 277 | 8.0 | 12.9 | 0.00 | 0.05 | 0.05 | 86 | 1012.5 |
| 20260508143559 | 6 | 266 | 4.8 | 16.1 | 0.00 | 0.05 | 0.05 | 84 | 1012.4 |
| 20260508143055 | 6 | 266 | 9.7 | 16.1 | 0.00 | 0.05 | 0.05 | 83 | 1012.4 |
| 20260508142554 | 6 | 271 | 4.8 | 9.7 | 0.00 | 0.05 | 0.05 | 84 | 1012.4 |
| 20260508142057 | 6 | 220 | 4.8 | 9.7 | 0.00 | 0.05 | 0.05 | 84 | 1012.4 |
| 20260508141603 | 6 | 295 | 4.8 | 9.7 | 0.00 | 0.05 | 0.05 | 84 | 1012.4 |
| 20260508141053 | 6 | 270 | 4.8 | 9.7 | 0.03 | 0.05 | 0.05 | 85 | 1012.4 |
| 20260508140553 | 6 | 215 | 4.8 | 8.0 | 0.03 | 0.05 | 0.05 | 86 | 1012.2 |
| 20260508140100 | 6 | 252 | 3.2 | 8.0 | 0.03 | 0.05 | 0.05 | 87 | 1012.2 |
| 20260508135555 | 6 | 293 | 4.8 | 8.0 | 0.03 | 0.05 | 0.05 | 87 | 1012.3 |